Location: Bakov nad Jizerou
(50.4784°N, 14.9394°E)
Time: 09:53:28
(UTC+00:00)

Cosmos 1536 Rocket - Pass Details

Date: 24 October 2021
Orbit: 605 x 633 km, 82.5° (Epoch: 28 November)

Event Time Altitude Azimuth Distance (km) Brightness Sun altitude
Rises 04:29:25 0° 180° (S) 2,890 7.1 -11.5°
Reaches altitude 10° 04:31:39 10° 178° (S) 1,984 6.2 -11.1°
Maximum altitude 04:36:01 66° 97° (E) 676 4.0 -10.4°
Drops below altitude 10° 04:40:22 10° 15° (NNE) 1,983 6.3 -9.7°
Sets 04:42:36 0° 13° (NNE) 2,889 7.1 -9.4°
